• MPC Preparation (Info)

  • MPEC 1995-M06 : 1995 LG

    The following Minor Planet Electronic Circular may be linked-to from your own Web pages, but must not otherwise be redistributed electronically.

    A form allowing access to any MPEC is at the bottom of this page.


    Read MPEC 1995-M05 Read MPEC 1995-M07


    M.P.E.C. 1995-M06                                Issued 1995 June 21, 14:03 UT
    
         The Minor Planet Electronic Circulars contain information on unusual
             minor planets and routine data on comets.  They are published
       on behalf of Commission 20 of the International Astronomical Union by the
              Minor Planet Center, Smithsonian Astrophysical Observatory,
                              Cambridge, MA 02138, U.S.A.
    
                 BMARSDEN@CFA.HARVARD.EDU or GWILLIAMS@CFA.HARVARD.EDU
    
                                        1995 LG
    
                               Revision to MPEC 1995-L10
    
    Observations:
         J95L00G  C1995 06 13.60497 21 28 00.21 -01 08 29.6                      568
         J95L00G  C1995 06 19.72184 21 28 08.01 +06 31 41.8                      413
         J95L00G  C1995 06 19.72448 21 28 07.96 +06 31 56.2                      413
         J95L00G  C1995 06 19.96597 21 28 06.19 +06 53 43.8          18.7 V      104
         J95L00G  C1995 06 19.96875 21 28 06.16 +06 53 59.5                      104
         J95L00G  C1995 06 19.97106 21 28 06.14 +06 54 14.7                      104
         J95L00G  C1995 06 19.97326 21 28 06.09 +06 54 24.6                      104
         J95L00G  C1995 06 19.97917 21 28 05.96 +06 54 57.2                      104
         J95L00G  C1995 06 20.72349 21 27 55.86 +08 06 23.3                      413
         J95L00G  C1995 06 20.72572 21 27 55.81 +08 06 36.6                      413
         J95L00G  C1995 06 20.99126 21 27 52.39 +08 32 21.7          18.5 V      557
         J95L00G  C1995 06 20.99708 21 27 52.26 +08 32 54.8                      557
         J95L00G  C1995 06 21.02859 21 27 51.73 +08 36 05.1          18.8 V      104
         J95L00G  C1995 06 21.03125 21 27 51.65 +08 36 23.0                      104
         J95L00G  C1995 06 21.03356 21 27 51.59 +08 36 35.9                      104
         J95L00G  C1995 06 21.03689 21 27 51.56 +08 36 56.0                      104
         J95L00G  C1995 06 21.03856 21 27 51.48 +08 37 08.3                      104
    
    Observer details:
    104 San Marcello Pistoiese.  Observers A. Boattini, L. Tesi.  0.40-m reflector
        + CCD.
    413 Siding Spring Observatory.  Observers D. I. Steel, R. H. McNaught,
        G. J. Garradd, A. Taylor.  Measurer R. H. McNaught.  1.0-m reflector + CCD.
    557 Ondrejov.  Observers M. Wolf, L. Sarounova, P. Pravec.  0.65-m f/3.6
        reflector + CCD.
    568 Mauna Kea.  Observer D. J. Tholen.  Measurer R. Whiteley.  2.2-m reflector
        + CCD.
    
    Orbital elements:
    1995 LG
    Epoch 1995 June 12.0 TT = JDT 2449880.5                 Williams
    M 292.06515              (2000.0)            P               Q
    n   0.90047120     Peri.  160.11178     +0.13974027     -0.71700360
    a   1.0620774      Node   276.45996     +0.78978951     +0.49670377
    e   0.7907243      Incl.   43.41541     +0.59724802     -0.48907177
    P   1.09           H    18.5          G   0.15
    From 26 observations 1995 June 6-21.
    
    Ephemeris:
    1995 LG                  a,e,i = 1.06, 0.79, 43                  q = 0.2223
    Date    TT    R. A. (2000) Decl.     Delta      r     Elong.  Phase     V
    1995 06 20    21 28.08   +06 57.1    0.418    1.273   119.3    44.1    18.8
    1995 06 22    21 27.56   +10 16.8    0.387    1.252   119.3    45.1    18.6
    1995 06 24    21 26.67   +14 07.2    0.358    1.230   118.8    46.4    18.5
    1995 06 26    21 25.34   +18 34.0    0.331    1.207   117.9    48.1    18.3
    1995 06 28    21 23.43   +23 43.1    0.306    1.184   116.2    50.4    18.2
    1995 06 30    21 20.76   +29 39.8    0.284    1.160   113.7    53.4    18.0
    1995 07 02    21 17.00   +36 27.3    0.266    1.136   110.2    57.1    18.0
    1995 07 04    21 11.63   +44 04.1    0.251    1.111   105.6    61.8    17.9
    1995 07 06    21 03.64   +52 21.2    0.242    1.086   100.1    67.2    18.0
    1995 07 08    20 50.94   +61 01.0    0.238    1.060    93.8    73.2    18.1
    1995 07 10    20 28.26   +69 36.9    0.239    1.033    87.1    79.5    18.2
    1995 07 12    19 38.8    +77 30.9    0.246    1.005    80.4    85.6    18.5
    1995 07 14    17 16.1    +83 10.8    0.258    0.977    73.9    91.4    18.7
    1995 07 16    13 15.6    +82 28.4    0.274    0.948    67.9    96.5    19.0
    1995 07 18    11 34.0    +77 41.8    0.293    0.919    62.5   101.0    19.3
    1995 07 20    10 55.6    +72 40.4    0.316    0.888    57.6   104.9    19.6
    1995 07 22    10 36.09   +68 04.9    0.341    0.857    53.2   108.2    19.9
    1995 07 24    10 24.10   +63 59.3    0.367    0.825    49.3   111.0    20.1
    1995 07 26    10 15.72   +60 20.9    0.396    0.792    45.7   113.4    20.4
    1995 07 28    10 09.32   +57 05.4    0.426    0.758    42.4   115.3    20.6
    1995 07 30    10 04.07   +54 08.6    0.457    0.723    39.4   117.0    20.7
    1995 08 01    09 59.55   +51 26.8    0.490    0.687    36.5   118.3    20.9
    
    Gareth V. Williams                                            M.P.E.C. 1995-M06
    

    Read MPEC 1995-M05 Read MPEC 1995-M07


    MPEC number:

    Enter an MPEC number in one of the following forms:

    • 1997-B01 (the full form)
    • J97B01 (the packed version of the full form)
    • B01 (the abbreviated form)